THOR ABLESTAR DEB, 335

Orbit data source: Space-Track

THOR ABLESTAR DEB, 335 is space debris in LEO originally from a launch on Thu, 29 Jun 1961 UTC launched from the Air Force Eastern Test Range (AFETR). Debris objects in space refer to the collection of defunct objects orbiting the Earth. Examples of debris include non-operational satellites, rocket bodies, and fragments generated from explosions, collisions, or faulty payload assembly.

Loading next visibility...
Identifier
335, 1961-015DM
Orbit
LEO
Country
Flag of USUS
Related business
Manufacturer
Unknown
Mission
Spacecraft
Bus & Motor
Unknown
Mass
Unknown
Launch date (UTC)
1961-06-29 (64 years ago)
Launch vehicle
Unknown
Launch site
Air Force Eastern Test Range (AFETR)
Object type
Payload
Rocket body
Debris
Shape & HBR
Unknown shape, 0.1 m
Radar Cross Section
Small (<0.1 m²)

Expand to show TLE details & history
Last TLE update: 13 hours ago

TLE from 13 hours ago
0 THOR ABLESTAR DEB
1   335U 61015DM  25297.48507502  .00001496  00000-0  70373-3 0  9993
2   335  66.8417  15.3371 0038833 334.3768  25.5402 14.22334605293781
Epoch: 2025-10-24T11:38Z
TLE epoch observation values (Epoch: 2025-10-24T11:38:30.481Z)
Latitude
-0.00001°
Longitude
167.58079°
Altitude
794.384 km
Speed
7.47 km/s
True Right ascension
01h 01m 20s
True Declination
0° 00' 00"
Sunlit
Object was in full shadow at epoch
Visualization orbit readout
Latitude
Unknown
Longitude
Unknown
Altitude
Unknown
Speed
Unknown
Apparent Right ascension
Unknown
Apparent Declination
Unknown
Sunlit
N/A
Visualization observer readout
Local Sidereal Time
20:05:25
Azimuth
Unknown
Elevation
Unknown
Doppler factor
Unknown
Orbital elements
Apogee altitude
843.769 km
Perigee altitude
787.896 km
Semi-major axis
7,193.969 km
Eccentricity
0.00388
Inclination
66.8417°
RAAN
15.3371°
Arg. of periapsis
334.3768°
True anomaly
25.7329°
Mean anomaly
25.5402°
Eccentric anomaly
25.63647°
Mean motion
3.55705 °/min
Orbital period
101.21 mins
BSTAR
0.00070373

Documentation

Showing up to 5 results
|